Погода в Новых Пичурах

Россия / Пензенская область     53°48′06″N   43°47′43″E
темп.,
°C
ветер,
м/с
пор.,
м/с
влажн.,
%
обл.,
%
осадки,
мм/ч
давл.,
гПа
погр.,
м
15 апреля, чт
чт1500:00+10юв396794 0.0 1020127
03:00+8юв33725 0.0 101932
06:00+8юв36735 0.0 101988
09:00+15юв365270 0.0 1018287
12:00+20вюв443580 0.0 10171104
15:00+21вюв453169 0.0 10161762
18:00+17в3548100 0.0 101690
21:00+13в3361100 0.0 101744
16 апреля, пт
пт1600:00+12в3468100 0.0 101761
03:00+10в3373100 0.0 101732
06:00+10всв3473100 0.0 101866
09:00+14в4658100 0.0 1019367
12:00+18в5741100 0.0 10191003
15:00+19в563685 0.0 10192118
18:00+15всв6116580 0.0 1019517
21:00+11всв6137890 0.0 1021381
17 апреля, сб
сб1700:00+10всв5128592 0.0 1021329
03:00+8всв4109278 0.0 1022258
06:00+7всв5119021 0.0 1022279
09:00+12в696695 0.0 1022511
12:00+17в695124 0.0 10211291
15:00+17в694896 0.2 10201307
18:00+15в7125715 0.1 1019872
21:00+11всв8166086 0.1 1020617
18 апреля, вс
вс1800:00+9вюв4965100 0.0 1021455
03:00+6с1291100 3.2 1021217
06:00+6в3590100 0.9 1021299
09:00+6всв4790100 1.3 1021408
12:00+5всв4788100 2.3 1023409
15:00+7вюв3783100 2.3 1023523
18:00+6всв51186100 0.1 1023653
21:00+6вюв41283100 0.1 1024540
19 апреля, пн
пн1900:00+6св4117996 0.1 1023364
03:00+6всв51377100 0.1 1024492
06:00+5всв6128499 0.0 1024490
09:00+7в61072100 0.0 1025693
12:00+9в6856100 0.0 10251328
15:00+10всв675197 0.0 10251639
18:00+7всв5854100 0.0 1025802
21:00+5в5967100 0.0 1026642